Location: Antoign�
(47.0844°N, 0.1131°W)
Time: 02:52:44
(UTC+00:00)

Cosmos 2219 Rocket - Pass Details

Date: 03 March 2021
Orbit: 826 x 848 km, 71.0° (Epoch: 12 April)

Event Time Altitude Azimuth Distance (km) Brightness Sun altitude
Rises 19:23:38 0° 180° (S) 3,352 5.2 -16.9°
Reaches altitude 10° 19:26:12 10° 173° (S) 2,424 4.4 -17.3°
Maximum altitude 19:31:16 38° 107° (ESE) 1,255 2.6 -18.2°
Drops below altitude 10° 19:36:24 10° 41° (NE) 2,450 4.3 -19.0°
Sets 19:38:59 0° 33° (NNE) 3,392 5.1 -19.4°
